Regional Weather Roundup
Issued by NWS

Home | Current Version | Previous Version | Graphics & Text | Print | Product List | Glossary On
Versions: 1 2 3 4 5 6 7 8 9 10 11 12 13 14 15 16 17 18 19 20 21 22 23 24 25 26 27 28 29 30 31 32 33 34 35 36 37 38 39 40 41 42 43 44 45 46 47 48 49 50
000
ASUS43 KLSX 212359
RWRMO

WEATHER SUMMARY FOR MISSOURI
NATIONAL WEATHER SERVICE SPRINGFIELD MO
700 PM CDT MON JUL 21 2014

NOTE: "FAIR" INDICATES FEW OR NO CLOUDS BELOW 12,000 FEET WITH NO
       SIGNIFICANT WEATHER AND/OR OBSTRUCTIONS TO VISIBILITY.
       CURRENT SKY AND/OR WEATHER CONDITIONS ARE NOT AVAILABLE FOR
       CHILLICOTHE AND FARMINGTON.

MOZ001>031-035>038-043-044-053-054-220100-
...NORTHERN AND WESTERN MISSOURI...

CITY           SKY/WX    TMP DP  RH WIND       PRES   REMARKS
KANSAS CTY INT MOSUNNY   89  76  65 S10       29.94F HX 100
6HR MIN TEMP:  87; 6HR MAX TEMP:  92;

KANSAS C DTWN  MOSUNNY   92  74  55 S14       29.93S HX 101
6HR MIN TEMP:  89; 6HR MAX TEMP:  94;

LEE`S SUMMIT   MOSUNNY   89  75  63 S10       29.97S HX  99
6HR MIN TEMP:  85; 6HR MAX TEMP:  91;

ST JOSEPH      SUNNY     90  76  63 S12       29.90F HX 101
6HR MIN TEMP:  87; 6HR MAX TEMP:  92;

CHILLICOTHE      N/A     89  75  63 S8        29.95S HX  99
6HR MIN TEMP:  86; 6HR MAX TEMP:  91;

KIRKSVILLE     SUNNY     85  73  67 S13       29.99S HX  91
6HR MIN TEMP:  85; 6HR MAX TEMP:  89;


$$
MOZ066>068-077>081-088>096-101>105-220100-
...SOUTHWEST MISSOURI...

CITY           SKY/WX    TMP DP  RH WIND       PRES   REMARKS
SPRINGFIELD    SUNNY     86  68  54 S6        30.03F
6HR MIN TEMP:  83; 6HR MAX TEMP:  88;

JOPLIN         SUNNY     90  71  53 S8        29.99F HX  96
6HR MIN TEMP:  88; 6HR MAX TEMP:  93;


$$
MOZ032>034-039>042-045>050-055>058-069>072-220100-
...CENTRAL MISSOURI...

CITY           SKY/WX    TMP DP  RH WIND       PRES   REMARKS
COLUMBIA       SUNNY     86  69  56 S7        30.02S HX  90
6HR MIN TEMP:  84; 6HR MAX TEMP:  89;

JEFFERSON CITY SUNNY     87  67  51 S5        30.00S HX  90
6HR MIN TEMP:  84; 6HR MAX TEMP:  89;

ROLLA          SUNNY     84  65  52 S6        30.04R
6HR MIN TEMP:  84; 6HR MAX TEMP:  88;

SEDALIA        SUNNY     88  74  63 S9        30.00F HX  96
6HR MIN TEMP:  87; 6HR MAX TEMP:  91;

OSAGE BEACH    SUNNY     88  68  51 SE7       30.02S HX  91

$$
MOZ051-052-059>065-220100-
...EAST CENTRAL MISSOURI...

CITY           SKY/WX    TMP DP  RH WIND       PRES   REMARKS
ST LOUIS INTL  SUNNY     87  65  47 S3        30.04S
6HR MIN TEMP:  85; 6HR MAX TEMP:  89;

SPIRIT OF STL  SUNNY     86  65  49 S5        30.02S
6HR MIN TEMP:  85; 6HR MAX TEMP:  88;

ST CHARLES     SUNNY     85  67  54 SE6       30.01F
6HR MIN TEMP:  84; 6HR MAX TEMP:  88;


$$
MOZ072>076-082>087-097>100-106>115-220100-
...SOUTH CENTRAL AND SOUTHEAST MISSOURI...

CITY           SKY/WX    TMP DP  RH WIND       PRES   REMARKS
CAPE GIRARDEAU SUNNY     82  67  60 E7        30.05S
6HR MIN TEMP:  82; 6HR MAX TEMP:  86;

FARMINGTON     SUNNY     82  66  57 S3        30.08F
6HR MIN TEMP:  82; 6HR MAX TEMP:  84;

POPLAR BLUFF   SUNNY     82  63  52 SE3       30.04S
6HR MIN TEMP:  81; 6HR MAX TEMP:  86;

WEST PLAINS    SUNNY     81  64  56 CALM      30.08F
6HR MIN TEMP:  80; 6HR MAX TEMP:  83;


$$


USA.gov is the U.S. government's official web portal to all federal, state and local government web resources and services.